Home > Weather > Kemerovo > Past weeks

Flag for Russia Weather for the Past 2 Weeks in Kemerovo, Russia

Now
10 °F

Snow flurries. Passing clouds.


Feels Like: -6 °F
Forecast: 5 / 10 °F
Wind: 15 mph from West

Location: Kemerovo

Current Time: Feb 10, 2016 at 1:00:06 AM

Latest Report: Feb 10, 2016 at 12:30 AM


Visibility: 4 mi

Pressure: 29.98 "Hg

Humidity: 85%

Dew point: 7 °F

Location of KemerovoLocation

Historic Weather in Kemerovo — Graph

°F

Kemerovo Temperature Yesterday

Maximum temperature yesterday: 25 °F (at 12:00 AM)
Minimum temperature yesterday: 10 °F (at 11:30 PM)
Average temperature yesterday: 18 °F

High & Low Weather Summary for the Past Weeks

 TemperatureHumidityPressure
High32 °F (Feb 6, 5:00 PM)100% (Feb 7, 6:00 PM)30.72 "Hg (Feb 7, 6:00 PM)
Low-13 °F (Jan 30, 8:00 AM)43% (Jan 29, 4:00 PM)29.50 "Hg (Feb 8, 9:30 AM)
Average12 °F76%30.29 "Hg
* Reported Midnight between Jan 25 and Jan 26 — Midnight between Feb 9 and Feb 10, Kemerovo, Weather by CustomWeather, © 2016

Note: Actual official high and low records may vary slightly from our data, if they occured in-between our weather recording intervals... More about our weather records

Advertising

Kemerovo Weather History for the Previous 24 Hours

 ConditionsComfort  
Time TempWeatherWind HumidityBarometerVisibility
12:00 AM
Wed, Feb 10
10 °FSnow flurries. Passing clouds.13 mph85%29.98 "Hg5 mi
11:30 PM
Tue, Feb 9
10 °FSnow flurries. Passing clouds.15 mph85%29.95 "Hg6 mi
10:30 PM12 °FSnow flurries. Passing clouds.17 mph79%29.95 "Hg3 mi
10:00 PM12 °FSnow flurries. Passing clouds.17 mph79%29.95 "Hg5 mi
9:30 PM12 °FSnow flurries. Passing clouds.17 mph85%29.92 "Hg4 mi
9:00 PM12 °FSnow flurries. Passing clouds.17 mph85%29.92 "Hg3 mi
8:30 PM14 °FSnow flurries. Passing clouds.20 mph79%29.89 "Hg4 mi
8:00 PM14 °FPassing clouds.15 mph79%29.89 "Hg5 mi
7:30 PM16 °FPassing clouds.20 mph73%29.86 "Hg6 mi
7:00 PM16 °FSnow flurries. Scattered clouds.20 mph79%29.86 "HgN/A
6:30 PM16 °FSnow flurries. Partly sunny.13 mph86%29.83 "HgN/A
5:30 PM16 °FSnow flurries. Partly sunny.10 mph79%29.83 "HgN/A
5:00 PM16 °FSnow flurries. Partly sunny.10 mph79%29.80 "HgN/A
4:30 PM16 °FSnow flurries. Partly sunny.13 mph79%29.80 "HgN/A
4:00 PM18 °FSnow flurries. Partly sunny.13 mph73%29.77 "HgN/A
3:00 PM18 °FSnow flurries. Scattered clouds.6 mph79%29.74 "Hg4 mi
2:30 PM18 °FSnow flurries. Scattered clouds.10 mph73%29.74 "Hg4 mi
2:00 PM18 °FSnow flurries. Scattered clouds.13 mph73%29.71 "Hg6 mi
1:30 PM16 °FSnow flurries. Scattered clouds.15 mph79%29.71 "Hg5 mi
1:00 PM16 °FSnow flurries. Scattered clouds.13 mph79%29.68 "Hg6 mi
12:30 PM16 °FScattered clouds.17 mph73%29.68 "HgN/A
12:00 PM16 °FSnow flurries. Partly sunny.17 mph79%29.65 "HgN/A
11:30 AM16 °FSnow flurries. Overcast.20 mph79%29.65 "HgN/A
10:30 AM16 °FSnow flurries. Mostly cloudy.17 mph79%29.62 "HgN/A
10:00 AM18 °FSnow flurries. Mostly cloudy.13 mph79%29.62 "HgN/A
9:30 AM18 °FSnow flurries. Overcast.10 mph79%29.62 "HgN/A
8:30 AM18 °FSnow flurries. Overcast.13 mph86%29.62 "HgN/A
8:00 AM19 °FSnow flurries. Overcast.10 mph79%29.62 "HgN/A
7:30 AM19 °FOvercast.8 mph79%29.62 "HgN/A
7:00 AM19 °FSnow flurries. Overcast.10 mph86%29.59 "Hg6 mi
6:30 AM21 °FOvercast.10 mph86%29.59 "HgN/A
6:00 AM21 °FOvercast.10 mph80%29.59 "HgN/A
5:30 AM21 °FOvercast.13 mph86%29.59 "HgN/A
5:00 AM21 °FOvercast.13 mph86%29.62 "HgN/A
4:30 AM23 °FOvercast.13 mph86%29.59 "HgN/A
4:00 AM23 °FSnow flurries. Overcast.13 mph93%29.59 "HgN/A
3:30 AM23 °FSnow flurries. Overcast.13 mph93%29.62 "Hg4 mi
3:00 AM25 °FSnow flurries. Overcast.15 mph86%29.62 "Hg3 mi
2:30 AM25 °FSnow flurries. Overcast.15 mph86%29.62 "Hg3 mi
2:00 AM25 °FSnow flurries. Overcast.13 mph86%29.62 "Hg4 mi
1:30 AM25 °FSnow flurries. Overcast.13 mph93%29.59 "Hg2 mi
1:00 AM25 °FSnow flurries. Overcast.13 mph93%29.59 "Hg3 mi
Weather by CustomWeather, © 2016

See weather overviewHow to use our weather pages